NG7N Weather Reports


time (UTC)temp
C
wind
direction
speed
KPH
gust
KPH
rain 1hr
cm
rain 24hr
cm
rain mn
cm
humidity
%
barometer
mb
20260507023928 12 179 1.6 8.0 0.00 0.00 0.00 81 1020.4
20260507023429 13 0 0.0 6.4 0.00 0.00 0.00 81 1020.4
20260507022929 13 0 0.0 4.8 0.00 0.00 0.00 81 1020.4
20260507022428 13 190 3.2 8.0 0.00 0.00 0.00 81 1020.4
20260507021929 13 160 3.2 6.4 0.00 0.00 0.00 81 1020.4
20260507021429 13 0 0.0 8.0 0.00 0.00 0.00 81 1020.4
20260507015428 13 167 1.6 11.3 0.00 0.00 0.00 81 1020.4
20260507014929 13 181 3.2 6.4 0.00 0.00 0.00 81 1020.4
20260507013929 13 133 1.6 9.7 0.00 0.00 0.00 81 1020.4
20260507012930 13 209 1.6 8.0 0.00 0.00 0.00 80 1020.4
20260507011429 13 183 3.2 8.0 0.00 0.00 0.00 81 1020.4
20260507010930 13 142 3.2 11.3 0.00 0.00 0.00 81 1020.4
20260507005931 13 182 1.6 6.4 0.00 0.00 0.00 81 1020.5
20260507003929 13 131 3.2 8.0 0.00 0.00 0.00 81 1020.5
20260507002929 13 161 4.8 9.7 0.00 0.00 0.00 80 1020.5
20260507001928 13 164 3.2 9.7 0.00 0.00 0.00 80 1020.5
20260507000928 13 149 6.4 11.3 0.00 0.00 0.00 80 1020.4
20260507000429 13 172 3.2 9.7 0.00 0.00 0.00 80 1020.4
20260506234428 13 162 4.8 9.7 0.00 0.00 0.00 80 1020.5
20260506233928 13 189 3.2 8.0 0.00 0.00 0.00 80 1020.5
20260506232928 13 224 3.2 14.5 0.00 0.00 0.00 79 1020.5
20260506232428 13 225 1.6 6.4 0.00 0.00 0.00 80 1020.5
20260506231928 13 194 4.8 9.7 0.00 0.00 0.00 80 1020.5
20260506225928 13 189 6.4 9.7 0.00 0.00 0.00 80 1020.8
20260506225429 13 156 3.2 9.7 0.00 0.00 0.00 80 1020.8
20260506222929 13 183 3.2 8.0 0.00 0.00 0.00 79 1020.9
20260506222428 13 0 0.0 8.0 0.00 0.00 0.00 79 1020.9
20260506221428 13 236 3.2 9.7 0.00 0.00 0.00 79 1020.9
20260506215928 13 189 4.8 8.0 0.00 0.00 0.00 78 1020.9
20260506214429 13 206 4.8 11.3 0.00 0.00 0.00 77 1020.9
20260506213928 13 188 3.2 9.7 0.00 0.00 0.00 77 1020.9
20260506211428 13 164 1.6 14.5 0.00 0.00 0.00 76 1020.9
20260506204928 14 211 3.2 9.7 0.00 0.00 0.00 75 1020.8
20260506203429 13 200 1.6 11.3 0.00 0.00 0.00 77 1020.8
20260506202929 13 203 3.2 11.3 0.00 0.00 0.00 77 1020.8
20260506202428 13 201 3.2 11.3 0.00 0.00 0.00 77 1020.8
20260506195930 13 178 3.2 17.7 0.00 0.00 0.00 78 1020.6
20260506192428 12 156 3.2 9.7 0.00 0.00 0.00 82 1020.6
20260506191428 12 162 3.2 11.3 0.00 0.00 0.00 83 1020.4
20260506190428 12 151 4.8 11.3 0.00 0.00 0.00 83 1020.4
20260506185929 12 185 4.8 11.3 0.00 0.00 0.00 83 1020.4
20260506183429 12 172 1.6 14.5 0.00 0.00 0.00 86 1020.5
20260506181057 11 187 1.6 19.3 0.00 0.00 0.00 88 1020.5
20260506180928 11 187 1.6 19.3 0.00 0.00 0.00 88 1020.5
20260506174928 11 164 4.8 17.7 0.00 0.00 0.00 90 1019.9
20260506174429 11 179 4.8 11.3 0.00 0.00 0.00 91 1020.0
20260506173428 11 156 6.4 11.3 0.00 0.00 0.00 92 1020.0
20260506172928 11 152 4.8 12.9 0.00 0.00 0.00 92 1020.3
20260506171428 11 144 1.6 11.3 0.00 0.00 0.00 93 1020.4
20260506170928 11 153 6.4 11.3 0.00 0.00 0.00 93 1020.4
20260506170428 11 165 4.8 9.7 0.00 0.00 0.00 93 1020.4
20260506165929 11 162 4.8 8.0 0.00 0.00 0.00 93 1020.1
20260506164928 11 179 3.2 8.0 0.00 0.00 0.00 93 1020.1
20260506163928 11 136 4.8 11.3 0.00 0.00 0.00 94 1020.2
20260506163428 11 168 1.6 8.0 0.00 0.00 0.00 94 1020.2
20260506162928 11 179 3.2 11.3 0.00 0.00 0.00 94 1019.8
20260506162428 11 176 4.8 9.7 0.00 0.00 0.00 94 1019.8
20260506161928 11 165 3.2 9.7 0.00 0.00 0.00 95 1019.8
20260506161428 11 172 1.6 8.0 0.00 0.00 0.00 95 1019.4
20260506155929 11 163 3.2 12.9 0.00 0.00 0.00 95 1019.4
20260506154929 11 188 3.2 12.9 0.00 0.00 0.00 95 1019.4
20260506154428 10 206 6.4 11.3 0.00 0.00 0.00 95 1019.7
20260506153929 10 229 4.8 11.3 0.00 0.00 0.00 95 1019.7
20260506153428 10 176 1.6 8.0 0.00 0.00 0.00 96 1019.7
20260506152928 10 198 4.8 11.3 0.00 0.00 0.00 95 1019.9
20260506152428 10 177 4.8 9.7 0.00 0.00 0.00 95 1019.9
20260506150928 10 206 1.6 9.7 0.00 0.00 0.00 95 1019.6
20260506145928 10 189 6.4 11.3 0.00 0.00 0.00 95 1019.4
20260506144928 10 169 4.8 14.5 0.00 0.00 0.00 95 1019.4
20260506143928 10 0 0.0 9.7 0.00 0.00 0.00 95 1019.5
20260506143429 10 176 4.8 9.7 0.00 0.00 0.00 95 1019.5
20260506142928 10 141 1.6 6.4 0.00 0.00 0.00 95 1019.5
20260506141928 10 161 4.8 9.7 0.00 0.00 0.00 94 1019.5
20260506140928 10 195 3.2 8.0 0.00 0.00 0.00 94 1019.3
20260506134928 10 183 4.8 8.0 0.00 0.00 0.00 94 1019.3
20260506131428 10 229 4.8 17.7 0.00 0.00 0.00 93 1019.2
20260506130428 10 232 4.8 16.1 0.00 0.00 0.00 92 1019.2
20260506125428 10 183 1.6 9.7 0.00 0.00 0.00 92 1018.8
20260506124928 10 183 4.8 9.7 0.00 0.00 0.00 92 1018.8
20260506122428 11 193 3.2 11.3 0.00 0.00 0.00 92 1018.7
20260506121428 11 0 0.0 8.0 0.00 0.00 0.00 92 1018.6
20260506120427 11 168 3.2 9.7 0.00 0.00 0.00 92 1018.6
20260506115928 11 202 1.6 9.7 0.00 0.00 0.00 91 1018.5
20260506113428 11 152 4.8 11.3 0.00 0.00 0.00 91 1018.3
20260506112927 11 156 4.8 9.7 0.00 0.00 0.00 91 1018.3
20260506112428 11 162 1.6 9.7 0.00 0.00 0.00 91 1018.3
20260506111928 11 176 4.8 9.7 0.00 0.00 0.00 91 1018.3
20260506111551 10 164 1.6 9.7 0.00 0.00 0.00 91 1018.3
20260506111428 10 164 1.6 9.7 0.00 0.00 0.00 91 1018.3
20260506110928 10 157 1.6 9.7 0.00 0.00 0.00 91 1018.3
20260506104928 10 0 0.0 6.4 0.00 0.00 0.00 92 1018.1
20260506103928 10 174 3.2 6.4 0.00 0.00 0.00 92 1018.1
20260506100928 10 226 4.8 8.0 0.00 0.00 0.00 91 1018.0
20260506094928 11 222 1.6 16.1 0.00 0.00 0.00 91 1017.8
20260506093428 11 222 3.2 9.7 0.00 0.00 0.00 91 1017.7
20260506092928 11 236 4.8 16.1 0.00 0.00 0.00 91 1017.7
20260506090928 11 227 6.4 17.7 0.00 0.00 0.00 90 1017.6
20260506085929 11 223 6.4 9.7 0.00 0.00 0.00 90 1017.3
20260506085428 11 208 3.2 17.7 0.00 0.00 0.00 89 1017.3
20260506083928 11 224 4.8 14.5 0.00 0.00 0.00 89 1017.3
20260506082927 11 225 4.8 11.3 0.00 0.00 0.00 89 1017.2
20260506071928 12 224 1.6 12.9 0.00 0.00 0.00 86 1016.8
20260506070928 12 214 3.2 9.7 0.00 0.00 0.00 86 1016.9
20260506070428 12 204 3.2 9.7 0.00 0.00 0.00 86 1016.9
20260506061927 13 196 1.6 8.0 0.00 0.00 0.00 85 1016.6
20260506060928 13 231 4.8 11.3 0.00 0.00 0.00 85 1016.2
20260506050927 14 192 3.2 9.7 0.00 0.00 0.00 82 1015.8
20260506044927 14 175 3.2 9.7 0.00 0.00 0.00 82 1015.7
20260506043928 15 184 3.2 8.0 0.00 0.00 0.00 81 1015.7
20260506041427 15 169 4.8 9.7 0.00 0.00 0.00 81 1015.7
20260506035928 15 163 1.6 6.4 0.00 0.00 0.00 80 1015.6
20260506034428 15 160 3.2 6.4 0.00 0.00 0.00 79 1015.4
20260506032928 15 231 1.6 8.0 0.00 0.00 0.00 78 1015.2
20260506031928 16 0 0.0 4.8 0.00 0.00 0.00 76 1015.2
20260506030927 16 0 0.0 3.2 0.00 0.00 0.00 75 1015.2